Theta_e
284 284 284 283 283 283 283 283 283 283 282 283 283 283 283 283 283 283 284 284 284 284 284 284 283 283 282 284 284 285 286 287 287 287 287 287 288 288 289 290 291 292 293 293 292 294 296 297 296 296 297 297 297 297 298 298 298 297 296 296 294 292 289 288 286 287 285 281 281 280 279 279 281 281 281 281 281 280 280 281 280 280 279 280 280
282 282 283 282 282 282 282 282 284 281 282 283 283 283 283 283 283 284 283 283 284 284 285 285 284 284 284 282 283 284 284 284 285 286 287 288 287 288 288 288 290 291 292 292 292 292 292 294 294 295 295 295 296 296 296 296 297 297 296 294 295 293 290 287 286 287 284 285 281 278 278 279 280 281 280 280 280 279 280 281 280 280 279 280 280
280 280 281 280 281 281 281 281 281 282 282 282 282 282 283 283 283 283 283 283 283 285 285 285 285 285 284 283 283 283 285 286 285 286 287 286 286 287 287 288 290 291 292 293 292 292 291 292 292 293 293 294 294 294 295 295 296 296 295 293 291 292 292 288 286 290 286 286 282 280 277 278 279 279 280 280 280 280 279 280 280 280 280 279 280
279 279 278 279 280 280 280 280 281 281 282 282 282 282 283 284 283 283 283 283 283 284 288 286 286 287 287 286 285 284 284 286 285 285 285 285 285 287 286 287 289 291 292 293 293 292 291 291 292 292 292 292 293 292 293 294 295 295 294 293 292 288 288 286 287 289 289 284 279 281 280 279 277 277 279 279 279 279 279 280 281 280 279 279 279
279 278 279 280 280 280 280 280 281 281 281 281 282 282 283 283 283 283 283 283 283 286 285 286 286 286 286 285 284 283 282 281 281 282 284 286 286 285 286 287 287 289 291 292 293 292 292 291 291 290 291 291 291 291 291 292 293 294 294 291 289 289 288 286 286 287 287 288 286 279 276 277 278 279 279 277 277 278 279 280 281 280 279 279 279
281 279 280 280 280 280 280 280 280 280 281 281 282 283 283 283 283 283 284 284 285 286 285 285 285 285 284 284 282 282 282 282 281 282 282 283 284 286 286 286 287 287 289 290 291 292 291 292 291 290 290 291 291 291 291 290 291 291 292 290 289 288 288 288 284 286 287 287 288 287 285 281 280 277 279 276 278 279 279 279 280 280 280 280 279
281 281 281 280 280 280 280 280 280 280 281 282 282 282 283 283 283 284 283 284 285 285 285 285 284 284 283 283 283 283 282 283 283 283 283 283 284 285 286 287 287 287 287 288 289 290 292 291 291 290 290 288 289 288 289 289 289 289 290 288 289 289 288 287 286 284 285 285 286 286 284 282 283 280 278 278 273 276 277 278 278 280 279 279 279
280 280 280 280 279 279 279 280 280 280 281 281 282 282 282 282 283 283 284 284 285 285 285 285 284 284 283 283 283 283 282 282 283 283 284 284 284 284 285 286 286 287 287 287 287 288 290 290 291 290 289 288 289 289 289 288 288 289 288 288 288 288 288 287 286 286 284 283 285 285 284 282 282 283 282 281 279 276 276 277 277 278 278 279 280
279 279 279 279 279 279 280 279 280 280 280 281 281 282 282 282 283 283 283 284 285 285 285 285 286 285 283 282 282 283 283 283 284 284 284 284 283 284 284 285 286 287 287 287 287 287 288 288 288 288 288 287 287 287 287 287 287 287 287 287 286 286 286 287 287 287 286 284 284 284 284 284 280 282 282 282 279 278 277 276 276 276 277 278 279
278 278 278 278 279 279 279 279 279 279 280 281 281 281 281 282 283 283 282 283 284 284 285 285 285 284 283 282 282 282 282 282 283 283 283 283 283 283 284 284 284 285 286 286 287 287 287 287 287 287 287 287 287 285 286 286 287 287 287 287 287 286 286 286 286 287 288 286 286 284 283 283 282 280 279 280 279 281 279 276 277 275 275 277 278
277 277 278 278 279 279 279 278 279 279 280 280 280 280 281 282 282 282 282 283 284 284 284 284 283 283 282 282 282 281 282 282 281 281 282 282 283 284 284 284 285 285 285 285 286 287 287 287 286 285 286 287 286 284 284 285 285 286 287 287 287 286 286 286 286 286 287 287 286 285 284 284 283 282 281 280 281 279 278 276 277 277 277 277 276
277 277 277 277 278 278 278 278 278 279 280 280 279 281 281 281 281 281 282 282 282 283 283 282 282 281 281 281 281 281 282 282 281 280 281 281 282 282 284 284 284 284 283 283 284 285 286 285 286 287 287 286 285 285 286 286 286 285 285 286 286 286 286 286 286 285 285 286 286 286 285 285 285 284 284 281 281 280 281 278 277 277 276 276 276
276 276 276 277 277 277 277 278 278 278 279 279 280 280 281 281 281 280 280 281 281 281 281 281 281 280 280 280 280 281 281 281 281 281 282 281 281 282 282 282 283 282 283 283 283 283 284 284 284 284 284 285 285 284 284 285 286 285 284 285 286 286 286 286 286 286 286 285 285 286 286 285 285 285 285 281 280 281 281 278 277 278 276 276 275
276 276 276 276 276 276 277 277 278 278 278 279 279 280 280 280 280 280 279 280 281 280 280 280 279 279 279 279 279 280 280 280 280 281 281 281 282 282 282 282 283 283 283 283 284 284 284 284 285 284 284 285 284 284 284 284 285 285 285 284 285 286 286 285 286 286 286 286 285 284 284 284 285 286 285 283 280 280 279 280 277 276 277 275 274
276 275 276 276 276 276 277 277 278 278 278 279 279 279 279 279 279 278 278 280 280 279 279 278 278 278 278 278 278 279 279 280 280 281 281 281 281 282 282 284 284 284 284 284 284 284 284 284 284 284 284 284 284 284 284 283 283 284 284 285 285 285 285 286 285 285 286 285 285 285 285 284 284 284 281 281 283 282 281 280 278 275 275 275 274
275 275 275 275 276 276 277 277 278 278 278 279 279 279 279 279 278 278 278 279 279 280 278 277 276 277 277 277 277 278 279 279 279 280 280 280 280 281 281 282 283 283 283 284 284 283 282 283 283 284 284 284 284 284 284 283 283 282 283 284 285 286 285 285 285 285 285 286 286 286 285 285 285 285 284 284 283 282 282 281 280 279 276 273 274
274 274 274 275 275 276 277 277 277 277 278 278 278 279 279 279 278 278 278 278 278 279 277 276 276 275 276 276 276 276 276 276 277 277 278 278 277 277 278 280 282 282 283 284 284 283 282 282 282 283 283 284 283 283 283 283 283 282 282 283 284 285 285 285 285 285 285 285 285 285 285 286 285 285 285 285 285 284 284 282 281 280 280 278 273
274 274 274 275 275 276 276 277 277 277 277 278 278 279 279 279 278 277 278 278 278 277 276 275 275 275 275 276 276 276 276 276 276 276 276 276 275 275 276 277 280 282 283 284 284 283 283 283 282 282 282 283 283 283 283 283 283 282 282 283 284 285 285 285 285 285 285 285 285 285 285 285 285 285 285 285 285 285 284 284 282 282 282 280 277
273 273 274 274 275 275 276 276 277 277 278 278 279 279 279 279 279 278 278 278 278 278 276 276 275 276 276 276 275 275 276 276 276 276 275 275 274 274 274 275 277 280 282 282 283 282 282 282 282 282 282 282 283 283 283 283 283 282 282 281 282 283 284 284 285 285 285 284 284 285 285 285 285 285 285 284 284 285 284 284 284 284 283 282 281
272 273 273 274 275 275 276 276 276 277 277 278 278 278 278 278 278 278 278 279 279 277 276 276 277 277 276 275 275 276 276 276 276 275 274 274 274 273 274 274 276 278 280 282 282 283 283 283 282 282 282 281 281 283 284 283 283 283 283 281 281 281 282 283 284 285 285 285 284 284 284 285 285 285 285 284 284 284 284 284 284 284 283 283 283
272 273 273 274 275 275 275 275 276 276 276 276 276 276 277 277 277 277 277 278 278 277 277 277 277 276 275 274 274 275 275 275 275 274 273 273 273 274 274 275 276 277 279 281 282 282 282 282 281 281 281 281 280 281 282 283 283 283 283 282 281 281 281 281 282 284 285 285 285 284 284 284 285 284 285 285 284 283 283 283 284 284 284 284 283
272 273 274 274 274 274 274 274 275 274 274 275 275 275 275 275 276 277 277 278 277 277 277 277 276 275 274 274 274 274 274 273 272 272 272 272 273 274 275 276 276 277 279 280 281 282 283 282 282 281 282 281 281 280 280 282 282 282 282 283 282 281 281 281 281 281 283 284 284 284 284 284 285 284 284 284 284 284 283 282 282 283 283 284 284
272 273 273 273 273 273 273 273 273 273 273 274 274 274 274 275 275 276 276 276 276 277 276 275 274 274 274 274 273 272 272 271 271 271 271 272 273 274 275 276 276 277 279 280 281 282 282 282 282 282 281 282 282 283 283 281 282 282 282 282 283 282 281 281 280 280 280 281 282 283 283 284 284 283 284 284 284 284 284 283 282 283 282 283 284
273 273 273 272 272 272 272 272 272 272 273 273 273 273 273 274 274 274 273 273 274 274 274 274 273 273 273 272 271 271 270 270 270 271 271 272 273 274 275 277 278 278 279 281 282 282 283 283 282 282 281 281 281 282 283 282 282 282 282 282 281 281 281 281 280 280 280 280 280 281 282 283 283 283 283 283 283 283 283 283 282 282 282 282 283
272 272 272 272 272 271 271 272 272 272 272 272 272 272 273 273 273 272 272 272 272 273 272 273 273 272 271 271 270 270 269 269 270 271 271 272 273 274 276 277 277 277 277 278 279 280 281 281 281 281 281 280 281 281 282 282 281 281 281 282 282 281 281 281 281 280 281 280 280 280 281 282 282 282 282 282 282 282 282 282 282 282 282 282 282
271 271 271 271 271 272 271 272 272 272 272 271 271 272 272 272 272 272 271 271 271 271 272 272 271 270 270 269 269 269 269 269 270 271 272 273 274 275 276 276 276 276 277 277 278 278 278 278 279 279 279 279 280 281 281 282 282 282 281 282 282 282 281 281 280 280 280 280 280 280 281 281 281 281 281 281 281 281 281 281 281 281 281 281 281
270 271 271 271 271 271 271 271 271 271 271 271 271 271 271 270 270 270 270 270 271 271 269 268 268 269 269 268 268 268 269 270 271 272 272 272 272 273 274 274 275 276 276 276 277 277 278 278 278 278 278 278 279 280 281 282 282 282 282 282 282 282 282 281 281 280 280 280 281 281 281 282 282 282 281 281 281 281 281 280 281 281 281 280 280
271 270 270 270 270 271 271 271 270 270 270 270 270 270 270 269 269 269 269 269 268 267 267 267 268 268 267 267 267 268 270 271 270 270 270 271 272 272 273 274 275 275 276 276 276 276 277 278 278 278 278 279 279 279 281 282 282 282 282 282 282 282 281 281 280 281 281 282 282 282 282 282 283 283 282 282 282 281 281 280 280 280 280 280 279
270 270 270 270 270 270 270 270 269 269 269 268 269 269 269 268 268 268 268 267 267 267 267 267 267 266 266 266 267 267 268 269 269 269 269 270 272 272 272 273 275 276 275 275 275 275 275 275 277 278 279 281 281 281 281 281 281 281 282 281 282 282 281 281 280 281 281 282 282 283 282 282 283 283 284 283 283 283 281 280 280 280 280 279 279
270 270 270 270 270 270 270 269 269 268 268 268 267 267 267 266 266 267 267 267 267 267 267 265 265 265 265 266 266 266 267 267 268 268 269 271 271 271 272 273 273 273 273 273 273 273 274 274 275 277 279 280 281 282 283 284 284 282 281 281 281 281 281 281 280 280 280 281 281 282 282 283 283 284 284 284 284 284 283 282 281 280 279 279 278
270 270 270 270 270 270 269 268 268 267 267 267 267 267 266 265 266 266 266 266 267 266 265 264 264 265 265 265 265 266 266 267 268 269 270 269 269 269 270 270 270 271 270 271 271 271 272 274 275 276 278 279 280 281 283 284 285 285 284 281 280 280 280 281 281 280 280 281 281 282 282 283 283 283 283 284 284 284 284 284 283 283 282 280 278
270 270 270 270 270 269 268 267 267 267 266 266 266 266 265 264 265 266 266 266 266 265 264 264 264 265 265 265 265 266 266 267 268 268 268 268 268 268 268 269 269 269 270 271 271 271 272 274 275 276 277 278 278 281 282 283 284 284 285 283 281 280 280 280 280 280 281 281 281 282 283 283 283 283 282 283 283 284 284 284 284 284 283 283 282
270 270 270 270 270 269 268 267 267 266 266 266 266 265 264 264 265 265 266 265 265 264 264 264 264 264 265 265 265 265 265 266 267 267 268 268 267 267 267 268 268 270 271 271 271 272 273 274 275 276 276 277 277 280 282 283 284 285 285 285 282 281 280 280 280 280 280 281 281 281 282 282 282 283 283 282 282 282 283 284 284 284 283 283 283
271 271 270 270 270 269 268 267 267 266 266 266 266 265 265 265 265 265 264 264 264 263 263 264 264 264 265 265 265 265 265 266 267 267 267 266 266 266 267 268 268 269 270 270 271 272 273 274 276 277 277 278 278 280 283 284 285 285 286 286 284 282 281 281 281 281 281 281 281 281 281 281 282 282 282 282 282 281 281 282 282 282 282 282 283
270 270 270 270 270 269 268 267 266 266 266 266 265 265 265 264 264 264 264 263 263 263 263 264 264 264 264 264 264 264 265 265 266 266 266 265 265 266 266 267 268 268 269 270 271 272 273 275 276 277 277 278 279 282 283 284 285 286 286 285 282 281 282 281 282 282 282 282 282 283 282 282 282 281 282 282 281 281 281 280 281 281 281 281 281
270 270 270 270 269 268 267 266 267 266 266 265 264 265 264 264 264 263 263 263 263 263 263 264 263 264 264 264 264 264 265 265 265 265 264 264 265 265 266 267 267 268 269 270 271 272 273 274 277 279 279 280 281 283 284 285 286 286 286 283 282 281 282 281 281 282 283 284 284 283 283 282 282 281 282 283 283 281 280 279 279 280 280 280 280
272 271 271 271 270 268 267 267 266 266 265 264 264 264 264 263 263 263 263 263 263 263 263 263 263 263 264 264 264 264 264 264 264 264 264 264 265 265 266 267 267 267 268 269 270 272 274 275 277 279 280 281 281 283 285 285 285 286 285 283 281 280 280 281 282 283 283 283 283 283 283 282 282 281 282 283 284 283 280 279 279 279 279 279 279
271 271 271 271 270 269 268 267 266 265 265 264 264 264 263 262 262 262 262 262 262 262 263 263 263 263 264 264 264 264 264 264 263 263 263 264 265 265 266 267 267 267 268 269 271 272 274 276 277 280 280 280 280 282 284 285 285 286 285 282 280 280 280 281 282 283 283 283 283 283 283 282 282 281 283 284 284 283 280 279 278 278 277 277 278
271 271 270 270 269 268 267 266 265 264 264 264 264 263 263 262 262 262 262 262 262 262 263 263 263 264 264 264 264 264 263 263 263 263 264 264 264 265 266 267 267 268 268 270 272 273 274 276 279 279 281 281 279 281 284 285 285 286 285 283 282 281 280 281 281 282 283 282 282 283 284 283 282 282 284 284 284 283 280 279 278 277 277 276 277
271 271 271 270 269 267 266 265 264 264 264 264 263 263 262 262 262 262 262 262 262 262 263 264 264 264 264 264 264 264 264 263 263 263 264 264 265 265 266 266 267 268 269 270 272 273 274 276 279 281 281 281 280 281 282 284 284 284 284 283 283 282 281 281 281 282 281 282 282 282 283 284 284 284 284 284 284 284 281 279 278 277 276 276 278
270 270 271 269 268 266 265 265 265 265 264 264 263 262 262 262 262 262 261 262 263 263 263 263 264 264 264 264 264 264 263 264 264 264 264 264 265 265 266 266 267 269 271 272 273 275 276 278 280 281 281 281 282 281 280 282 282 282 282 282 280 281 281 281 281 281 281 280 280 280 280 282 284 284 284 284 284 284 283 280 278 277 277 278 279
271 270 269 267 266 266 265 265 265 264 263 263 263 261 261 261 261 261 262 263 263 263 263 263 263 263 263 263 263 264 264 264 264 264 264 264 265 266 266 267 268 270 271 272 274 277 279 279 280 281 281 280 280 280 277 280 281 281 281 282 280 280 280 279 279 279 279 279 278 277 276 280 282 283 283 284 283 283 283 280 278 280 280 280 278
268 268 268 266 265 264 264 265 264 264 263 263 262 261 261 261 261 262 263 263 263 263 263 263 263 263 263 263 263 263 263 264 264 264 264 264 265 266 267 268 269 270 270 271 273 277 278 277 277 277 277 277 277 276 279 279 280 281 281 281 281 280 281 280 279 278 277 277 276 276 278 280 281 282 283 283 283 283 283 280 281 281 281 280 278
268 267 266 265 264 264 264 264 264 263 263 262 262 261 261 261 261 263 263 263 263 263 263 262 262 262 263 263 263 263 264 264 264 264 265 264 265 265 266 267 268 268 269 270 272 275 277 276 275 275 273 272 274 275 278 279 279 280 280 280 280 280 280 279 279 278 277 276 276 276 277 280 281 282 282 282 282 282 280 281 281 281 280 279 276
266 265 265 264 263 263 264 263 263 262 262 262 262 261 260 260 262 263 262 262 262 262 262 262 262 262 262 262 263 263 263 264 264 264 264 264 264 265 265 266 267 267 268 269 271 273 275 275 275 275 275 274 274 275 275 277 279 279 279 279 279 280 280 280 279 278 277 277 278 279 279 280 280 281 282 282 281 281 281 281 281 280 280 276 274
264 263 263 263 263 263 263 261 261 262 261 262 262 261 260 261 262 262 262 262 262 261 261 261 261 261 262 262 262 262 263 264 264 264 264 264 264 264 265 265 266 266 267 268 270 272 273 274 275 275 274 273 274 274 275 275 276 277 277 278 279 280 280 280 280 278 278 278 279 279 279 279 280 280 280 279 278 278 280 280 280 280 275 273 273
262 262 263 263 262 262 261 260 259 261 261 261 261 262 262 262 262 262 262 262 261 261 261 261 261 261 261 262 261 262 262 263 263 264 264 264 265 265 265 265 266 266 267 268 269 271 272 274 274 273 273 273 272 273 274 274 273 273 274 276 277 278 280 280 277 277 278 277 278 278 278 278 278 280 279 279 279 280 279 279 276 273 273 273 272
262 262 263 263 262 261 260 259 259 260 261 261 261 261 261 262 262 262 262 261 261 261 260 260 260 261 261 261 261 263 263 262 263 264 263 264 264 265 265 265 266 266 267 267 269 271 273 274 273 273 273 273 272 273 274 274 274 274 275 277 277 276 275 275 275 276 276 277 276 278 277 276 275 273 272 271 271 271 271 272 272 272 272 272 273
261 262 262 260 260 259 259 259 259 260 260 260 260 261 261 261 262 262 262 261 260 261 260 260 260 260 260 261 262 262 262 262 263 263 264 264 264 265 266 267 268 269 269 270 271 272 275 275 275 274 273 272 273 273 274 277 277 278 278 275 274 274 274 274 276 277 274 273 273 272 272 272 271 270 270 270 270 270 270 270 270 271 271 271 270
262 262 260 259 259 259 259 259 259 260 260 260 260 261 261 262 262 262 261 260 260 260 260 260 260 260 260 261 261 261 262 262 262 263 263 264 267 270 269 268 268 273 275 276 277 276 277 277 276 276 275 274 273 275 279 279 279 279 279 278 278 278 278 277 278 277 274 271 271 270 270 269 269 268 268 268 268 268 268 268 268 270 268 268 267
261 259 258 258 258 259 259 259 259 260 260 260 260 260 261 261 261 261 261 260 260 259 259 259 260 260 261 261 261 261 262 263 263 263 263 263 264 266 270 272 273 274 275 276 278 279 280 280 279 277 277 279 279 279 279 279 279 280 279 279 279 279 279 278 277 273 271 270 269 269 268 268 268 268 267 266 266 266 266 266 265 265 266 266 265
Wind_Speed
5 5 6 8 10 11 8 8 9 9 7 11 14 12 10 10 9 9 8 7 7 8 8 6 6 6 4 5 7 6 5 4 4 4 4 5 8 10 10 10 11 12 12 11 8 5 3 1 1 2 2 4 4 5 5 5 6 7 10 11 15 13 9 8 9 11 9 4 2 3 2 2 4 5 9 8 8 7 6 7 7 7 7 7 8
5 6 7 7 8 8 6 8 9 13 14 15 15 15 11 11 11 11 8 7 7 7 9 9 6 6 7 5 5 6 6 6 6 5 5 5 6 9 10 8 10 11 11 10 9 8 8 5 1 1 1 1 3 5 8 5 4 5 5 7 9 15 12 12 11 13 8 12 10 4 2 2 4 5 7 8 7 7 8 8 8 9 9 8 7
5 4 5 6 7 8 7 9 10 11 12 12 12 12 12 12 11 10 9 9 8 8 7 8 7 7 4 5 4 5 5 6 6 6 5 5 5 7 8 8 7 7 7 7 8 9 9 9 8 4 1 0 1 3 4 7 5 4 6 6 6 8 8 9 15 19 14 11 5 6 5 7 4 5 6 8 10 9 7 8 9 9 12 9 8
9 4 6 6 8 9 9 10 10 10 10 10 10 10 9 10 11 10 10 9 7 5 5 6 6 7 6 6 6 5 6 5 4 4 4 5 7 8 6 7 6 5 6 6 7 8 9 10 9 7 6 2 2 2 3 5 7 6 4 5 5 5 5 6 11 16 12 14 9 12 6 7 4 12 15 7 6 7 10 11 9 11 10 9 7
9 6 7 9 9 9 9 10 10 9 8 8 8 9 8 9 10 10 10 8 6 7 7 6 7 7 7 8 6 7 5 5 4 5 6 7 7 6 8 8 7 7 7 7 6 8 9 9 9 8 7 6 3 3 4 4 4 5 6 4 4 6 10 4 8 12 12 17 14 8 3 6 13 5 8 4 7 8 11 12 11 10 9 10 10
9 8 9 9 8 9 12 13 11 7 7 6 7 8 8 9 9 7 8 9 10 9 10 9 7 8 9 8 8 8 7 7 7 8 7 6 7 8 8 7 7 8 8 8 7 6 7 8 9 9 8 7 5 4 5 4 4 6 6 6 5 4 7 9 6 9 12 15 13 15 15 10 10 5 11 10 5 9 7 7 10 11 10 11 10
11 11 12 12 11 15 15 13 10 7 8 8 8 9 9 8 5 7 7 7 8 9 11 10 10 10 10 8 8 8 9 7 6 7 7 8 6 7 8 8 8 8 8 7 6 6 6 6 7 8 8 7 6 4 6 6 6 5 4 4 5 5 4 8 10 9 9 10 10 10 5 2 8 11 9 5 3 4 7 9 11 11 11 11 11
12 12 14 13 13 15 16 14 11 10 9 9 9 9 11 6 6 8 8 8 7 8 9 9 8 10 9 8 8 8 8 9 9 8 8 7 9 9 7 6 7 6 7 7 7 7 7 6 6 7 7 8 7 6 7 6 5 5 5 5 5 6 6 7 9 9 12 11 12 13 9 2 6 11 8 13 8 8 9 8 4 9 8 10 11
12 12 14 14 15 17 15 12 8 8 8 8 9 10 7 4 7 8 9 9 8 9 8 8 9 9 8 8 9 8 8 8 8 7 8 8 10 10 9 9 8 9 8 9 9 8 7 6 6 6 7 7 6 7 6 6 6 7 7 6 6 6 6 6 7 10 10 12 11 13 12 10 4 6 5 7 7 7 9 12 12 5 5 10 10
10 11 12 14 15 15 11 10 11 9 8 7 8 6 4 5 8 10 10 9 9 9 9 8 7 6 9 9 11 11 9 9 7 9 8 8 9 10 9 9 9 9 8 7 7 7 8 8 7 6 6 6 5 6 7 6 6 7 8 8 7 8 5 6 8 8 9 10 12 10 12 10 8 4 5 7 4 7 9 11 12 12 13 14 10
13 14 15 16 15 13 10 15 15 14 11 9 6 2 3 5 7 10 10 9 9 10 9 6 5 8 9 11 12 12 12 10 9 9 9 9 9 10 9 9 10 10 8 7 7 8 8 8 7 6 6 5 5 5 6 6 6 6 8 7 8 9 8 7 7 7 8 9 11 10 12 13 14 13 12 9 9 6 2 5 9 12 16 11 10
12 13 15 16 15 15 17 19 17 16 15 13 4 4 6 6 7 9 9 9 9 9 5 5 7 7 8 10 12 13 13 11 10 11 10 10 9 9 9 9 10 9 8 8 9 8 7 7 7 8 8 8 8 8 8 7 7 5 5 6 7 8 8 8 8 8 7 7 10 10 10 10 12 13 11 8 10 8 9 7 9 7 5 6 2
13 15 18 17 15 17 18 18 16 14 15 8 6 8 8 7 8 8 8 7 8 7 5 6 6 6 7 9 10 11 13 13 12 11 10 9 8 9 9 9 9 8 7 7 8 7 6 7 7 8 8 8 9 8 7 8 8 6 6 6 8 9 8 9 9 11 10 8 8 8 9 9 10 9 10 6 7 6 7 6 7 10 11 9 5
20 18 16 15 17 18 19 16 14 14 12 8 8 9 8 8 8 6 6 7 8 5 5 5 4 5 5 7 9 10 13 13 12 12 12 10 9 10 9 9 9 9 9 10 10 11 10 9 9 9 9 9 9 9 8 7 7 7 7 7 7 8 8 9 9 11 10 9 6 5 6 8 8 8 9 6 6 6 7 9 7 4 1 3 2
15 16 17 18 20 21 18 15 14 14 12 10 9 10 10 9 7 6 7 8 7 5 4 3 4 4 5 6 7 8 10 12 12 12 11 11 11 12 11 10 10 10 9 10 12 12 13 11 9 9 10 10 9 8 8 6 6 6 6 7 7 6 7 8 9 10 10 11 10 8 7 6 6 5 3 5 6 7 6 5 8 8 3 3 5
15 18 20 21 21 20 16 15 14 14 12 11 12 12 12 10 7 7 8 9 7 5 4 3 4 4 4 6 7 9 11 12 12 11 11 11 13 13 13 12 10 10 10 10 11 11 10 11 11 11 11 10 9 9 9 8 8 7 6 6 8 6 7 8 9 9 10 11 10 8 7 8 7 6 5 4 4 4 4 6 7 10 11 7 4
17 19 20 22 20 17 16 16 15 14 13 14 15 14 15 12 10 11 11 9 7 5 4 3 4 4 5 6 8 10 11 13 14 15 13 12 13 14 15 15 13 11 11 10 11 10 11 8 9 10 10 9 9 9 9 8 8 7 7 7 7 7 7 8 7 8 8 9 8 10 9 8 6 5 5 5 5 4 5 4 7 9 8 9 7
19 19 20 19 18 19 19 17 16 15 16 16 16 16 14 12 11 14 15 14 8 6 5 4 4 5 5 7 8 9 10 12 13 13 12 13 13 13 14 16 15 12 11 10 11 11 12 12 12 9 9 8 9 9 9 9 9 8 8 8 7 6 6 6 6 6 8 7 7 8 7 8 7 7 7 7 6 6 6 7 7 7 7 9 8
18 18 18 18 18 19 20 19 19 19 19 18 17 17 15 13 15 17 18 15 12 9 5 4 4 5 5 7 8 10 10 12 11 11 11 13 14 13 15 15 16 15 13 12 12 11 10 11 11 9 9 10 9 9 8 9 9 8 8 7 7 6 6 6 6 6 6 6 7 8 7 7 6 8 7 6 6 7 7 7 8 8 7 8 8
17 18 18 17 18 19 20 22 22 21 20 19 19 18 18 18 20 21 21 19 16 11 7 7 6 7 9 8 8 9 11 11 11 11 13 15 15 16 16 17 15 14 14 14 13 12 11 13 12 11 9 8 8 9 9 9 8 8 8 7 7 7 7 7 6 5 5 5 6 7 7 7 6 6 7 7 7 7 7 7 8 9 9 9 7
18 18 17 17 18 20 22 23 22 22 21 21 20 21 20 20 20 21 21 20 16 12 9 8 8 8 8 10 11 11 12 10 11 14 15 16 15 15 15 15 14 14 13 13 13 12 11 10 9 8 7 7 7 8 8 9 9 10 9 9 8 8 8 7 6 6 5 6 6 7 8 8 6 7 7 7 7 8 7 7 8 8 10 9 9
19 18 15 17 19 20 19 19 19 20 20 20 19 20 21 20 20 19 18 15 15 14 11 10 9 10 12 13 12 9 10 11 16 18 18 17 14 13 14 13 13 13 12 13 13 11 10 10 10 10 8 8 6 4 4 6 9 10 10 8 8 9 9 8 6 6 6 5 5 7 8 8 7 7 7 8 8 8 8 8 8 9 10 10 10
19 16 14 17 17 16 17 19 20 20 19 19 18 18 20 23 21 17 17 18 16 14 12 13 14 14 15 12 10 11 12 16 18 17 16 14 13 13 13 14 14 13 13 12 12 11 10 9 9 9 8 8 9 9 8 7 8 10 10 9 9 9 9 9 9 8 7 5 5 6 8 7 5 7 8 8 7 8 8 8 10 9 10 10 10
17 13 16 16 15 15 17 19 19 18 18 19 17 18 20 17 15 16 18 20 19 17 17 16 16 16 12 11 12 12 15 17 18 16 15 13 12 11 12 14 11 11 12 11 11 11 10 9 9 9 8 7 7 8 8 8 9 9 9 10 9 10 10 9 9 9 8 7 7 7 7 6 6 8 8 7 7 8 8 8 10 9 10 11 10
15 18 18 17 16 18 18 19 18 18 17 17 20 21 19 18 17 18 18 19 19 18 18 17 14 13 12 14 13 13 14 16 16 13 14 13 13 13 13 12 10 10 11 11 10 9 9 9 9 9 8 7 7 8 9 9 8 8 9 10 10 10 10 10 10 9 9 9 8 8 7 6 5 8 8 7 7 9 9 9 10 9 10 9 8
18 20 18 18 17 18 19 19 18 20 20 20 22 20 20 18 18 17 18 18 20 19 17 14 15 17 16 13 13 14 15 17 15 14 15 14 13 12 10 10 10 12 10 9 9 8 8 10 9 8 7 7 6 7 8 10 10 9 9 8 9 10 11 10 10 9 9 9 9 9 8 7 7 8 8 7 7 8 8 9 10 10 9 9 9
19 18 17 17 18 20 23 22 18 19 23 24 21 20 19 18 19 19 19 19 17 16 17 20 21 20 15 12 14 15 16 15 13 13 13 14 14 15 14 12 10 11 11 11 10 10 9 8 9 9 10 9 9 9 10 11 11 10 10 10 9 10 10 9 9 10 9 9 9 9 8 9 10 9 9 8 8 8 8 9 10 10 9 8 8
18 18 19 19 19 20 18 17 20 20 21 22 24 23 20 19 21 22 21 17 13 16 19 20 18 13 13 16 16 18 17 14 14 15 15 15 14 13 13 11 11 11 9 8 9 11 11 10 10 9 10 10 10 10 11 11 10 10 9 9 10 10 9 9 8 9 10 10 10 10 9 9 10 10 9 9 9 9 8 9 9 8 9 10 9
19 20 20 20 22 20 17 18 19 23 29 26 19 19 20 21 24 22 14 14 16 17 18 15 15 16 17 17 18 15 16 16 16 15 15 14 12 11 12 12 11 8 9 10 10 10 11 14 13 11 11 9 8 8 7 7 8 9 9 10 10 10 10 10 10 10 10 11 10 10 10 9 11 13 14 12 11 11 8 9 9 8 9 10 9
20 21 21 21 21 17 18 17 21 23 25 29 24 22 22 23 22 20 16 17 18 17 14 15 16 17 17 17 17 16 16 15 15 15 13 11 11 12 12 13 13 12 11 11 12 11 10 12 12 12 11 10 10 8 9 15 14 9 8 9 10 11 11 11 11 10 10 10 10 9 10 15 16 17 16 16 16 16 15 12 9 9 10 10 10
22 21 22 21 20 17 16 18 22 23 21 21 23 23 22 20 21 17 17 17 16 14 15 15 15 16 15 15 14 15 15 15 14 12 13 13 13 14 14 15 14 11 12 11 12 13 12 12 12 12 12 10 9 9 17 17 17 20 14 10 10 10 10 10 10 10 10 10 10 10 10 13 15 16 15 18 18 19 19 19 18 16 13 12 11
23 22 21 22 19 13 14 18 22 22 25 22 23 20 18 21 19 19 19 17 16 17 17 16 16 15 15 14 14 15 15 15 14 14 13 12 12 13 14 15 13 13 11 10 12 13 12 12 12 12 12 11 10 13 21 21 21 22 20 13 9 9 9 9 10 11 10 10 11 11 10 9 9 11 11 12 16 18 19 19 19 18 19 21 19
22 23 23 21 17 11 15 19 19 19 21 26 23 19 21 20 20 18 18 18 17 15 17 17 16 16 16 15 15 16 16 16 15 14 12 12 12 13 13 13 13 14 12 10 10 10 11 11 12 12 12 12 12 17 22 24 24 24 25 20 10 10 9 9 10 11 11 11 10 9 9 9 9 15 13 11 11 12 17 20 19 19 19 19 20
21 20 21 22 14 9 15 18 19 19 20 18 20 22 20 20 19 19 20 16 15 17 17 16 15 15 15 15 15 16 16 16 15 15 14 14 13 13 15 14 14 14 13 13 13 13 12 12 11 12 12 13 13 17 23 24 24 24 24 21 13 11 11 11 11 12 11 11 11 10 9 10 9 10 10 12 12 11 11 12 13 14 13 17 21
22 23 22 21 19 17 18 19 19 18 17 21 21 16 19 18 18 19 17 16 16 16 16 15 15 15 15 14 15 16 16 16 15 15 15 16 16 15 15 13 13 13 13 13 13 12 12 13 13 13 13 14 14 21 22 22 22 23 24 20 11 6 9 10 12 12 12 11 11 11 11 11 10 10 10 12 12 12 12 12 13 14 14 13 14
22 23 23 22 19 18 19 19 16 17 17 18 17 19 17 16 18 18 16 17 18 16 16 15 16 15 15 16 16 16 16 15 16 15 15 16 15 15 15 14 14 13 13 12 12 11 13 14 14 13 12 12 11 19 20 20 21 22 24 14 6 7 8 8 9 10 11 11 11 11 11 11 12 11 14 19 17 12 12 14 14 14 13 12 13
22 21 22 18 14 16 18 19 18 16 18 18 20 17 15 18 17 15 16 17 17 16 16 16 15 16 16 16 15 15 14 15 16 15 15 15 15 16 15 13 14 13 13 13 12 12 11 11 13 12 10 8 8 12 16 17 18 20 14 8 6 7 8 9 10 10 11 11 11 12 12 11 11 11 15 20 23 21 14 16 15 15 13 12 12
21 19 17 16 16 17 16 17 13 14 18 20 17 16 18 17 14 17 18 17 16 16 16 16 16 16 16 15 14 14 15 15 14 15 15 15 15 14 14 13 12 14 13 13 11 11 11 11 12 10 5 5 7 9 13 14 17 17 14 8 6 7 8 9 9 10 9 10 12 19 16 14 13 13 18 23 25 21 15 15 15 15 16 13 12
20 20 19 17 17 17 18 19 15 14 14 15 17 20 16 14 17 17 16 16 16 17 17 17 17 16 15 13 13 13 15 14 14 15 14 15 14 14 14 12 12 12 13 12 11 10 11 11 11 9 10 9 7 8 12 15 17 18 13 7 7 7 9 9 8 9 9 9 9 13 20 16 14 15 20 21 24 21 15 15 15 13 14 15 13
19 18 17 17 17 19 19 13 13 17 18 18 20 17 16 18 17 14 14 13 16 18 18 17 16 14 14 14 14 14 12 13 15 15 13 13 14 13 13 14 13 11 11 11 10 10 11 12 11 10 9 8 7 7 7 11 10 11 12 7 5 7 8 10 10 9 9 10 11 10 14 21 20 19 18 21 24 27 18 13 12 12 12 15 10
21 18 17 13 17 18 17 13 12 12 14 18 17 17 18 16 16 15 14 16 18 17 17 15 14 14 15 17 14 11 14 14 12 13 13 12 12 13 14 13 12 11 10 10 10 9 10 11 10 10 8 6 4 2 3 7 10 12 13 12 6 7 7 7 8 10 10 10 9 8 7 14 19 19 18 20 24 26 23 12 13 12 12 9 9
17 21 21 16 18 19 22 17 12 17 19 19 16 17 17 17 17 17 19 18 16 16 15 15 17 17 16 14 13 14 13 12 12 12 12 13 11 11 11 12 10 10 13 13 13 12 6 6 6 6 5 5 3 5 4 6 10 12 13 15 9 6 6 5 5 6 6 6 7 6 5 11 16 14 16 20 22 23 25 12 12 15 14 15 11
24 22 17 19 20 21 20 13 13 16 18 15 17 18 16 16 17 19 17 14 15 15 16 17 16 16 14 14 14 15 14 11 11 11 12 12 11 10 10 11 10 11 12 13 13 11 7 7 7 7 6 6 6 5 8 6 9 12 14 14 15 11 13 7 6 7 6 5 4 5 6 11 13 16 18 20 20 22 19 10 19 21 18 19 14
22 17 20 23 19 19 20 14 13 14 16 16 16 16 15 17 18 16 14 15 16 16 16 16 15 14 15 14 14 14 13 12 12 11 11 11 12 11 11 9 9 10 9 11 9 10 9 7 8 8 7 5 5 5 7 10 7 11 13 15 14 14 14 8 5 5 5 6 5 6 7 13 15 15 17 19 19 17 8 13 19 21 20 19 10
18 22 25 22 18 23 17 13 16 21 20 17 15 15 18 18 16 14 17 17 16 16 16 15 15 15 14 14 13 12 12 11 11 11 12 11 11 12 10 10 9 9 9 9 9 9 9 9 9 9 6 4 5 6 7 7 9 10 13 13 13 12 13 14 7 5 6 6 8 10 11 12 12 13 15 17 13 15 14 19 21 22 20 9 10
22 24 23 19 19 19 11 18 21 20 19 16 15 14 17 16 15 16 16 15 16 16 16 16 15 14 15 14 14 12 11 10 10 8 9 9 10 10 10 11 10 8 8 9 9 10 10 9 8 6 6 7 7 7 6 5 5 6 7 11 13 12 8 11 8 6 8 7 8 8 9 10 11 10 7 4 3 3 13 21 22 19 8 9 9
24 23 21 18 17 16 17 21 19 20 17 15 15 14 14 15 17 16 16 15 16 16 16 15 16 15 14 13 13 11 11 10 9 8 8 8 8 9 10 10 8 9 8 8 9 10 10 9 7 7 7 7 7 7 6 5 5 5 5 7 7 6 5 3 6 4 5 4 5 5 4 6 5 9 6 7 7 12 13 12 8 9 9 9 9
22 21 19 17 19 20 21 21 19 17 15 15 15 15 15 16 15 15 14 15 15 15 16 15 16 14 12 12 12 15 14 10 11 10 10 10 9 9 8 9 9 10 9 9 9 10 10 8 8 8 7 7 6 6 5 5 6 5 6 3 3 6 6 5 5 5 4 4 3 4 4 4 6 8 8 9 8 8 9 9 9 8 8 7 9
22 19 19 22 21 21 21 20 19 16 16 15 16 15 15 15 15 14 15 16 16 17 16 15 14 13 12 12 11 11 11 11 10 10 9 8 9 10 10 10 10 8 8 8 9 11 9 8 8 8 7 6 6 6 5 7 6 8 5 1 4 5 6 5 7 10 7 7 7 7 7 7 7 8 8 8 8 9 8 9 10 9 8 8 7
19 17 22 22 21 19 20 19 16 16 16 16 16 15 14 14 14 14 15 16 17 15 15 14 12 12 12 12 11 11 11 10 10 9 10 11 10 15 13 10 11 17 21 21 19 11 10 9 8 6 4 5 6 5 8 11 9 7 6 7 9 10 9 8 10 13 8 7 6 7 6 7 7 8 8 8 8 9 9 8 7 9 8 7 7
20 21 22 22 21 20 19 18 17 16 16 16 15 15 15 15 14 15 15 16 17 14 12 12 13 12 13 13 11 11 10 10 10 10 9 9 10 9 11 17 17 18 19 21 21 19 20 20 14 5 5 8 9 8 9 6 8 6 10 10 11 11 12 13 13 10 7 6 7 7 7 7 7 7 7 7 8 9 9 9 7 6 6 8 8
Wind_Direction
17 15 20 21 8 358 353 348 340 335 331 332 330 324 325 319 315 304 300 305 311 307 301 291 285 282 281 257 257 260 253 248 258 267 284 298 311 313 315 315 314 308 302 299 296 283 256 229 351 321 330 327 317 308 307 275 237 239 227 204 188 186 190 176 168 157 150 152 97 182 223 214 208 188 201 199 199 192 182 187 192 188 197 197 196
19 12 12 15 357 350 351 349 347 345 339 336 332 329 329 328 318 306 307 308 310 309 304 299 281 259 266 269 269 273 270 258 256 255 258 270 290 301 305 308 309 308 300 297 304 306 305 288 243 255 338 254 277 294 299 298 283 259 253 250 217 193 191 177 164 143 181 187 176 164 210 256 227 221 213 214 196 189 192 193 191 196 197 200 191
0 356 13 356 349 350 352 353 351 346 336 337 338 339 335 330 324 317 314 312 307 315 323 315 312 312 305 287 280 275 257 244 234 231 240 252 264 277 286 296 302 304 305 313 315 313 308 309 302 278 228 172 238 267 283 293 290 261 243 232 242 241 210 180 171 178 184 180 140 121 196 195 247 247 251 226 203 196 191 197 194 198 202 195 192
351 343 347 342 348 353 356 353 346 339 341 342 347 341 335 333 327 318 311 305 312 317 320 310 304 302 299 284 292 281 275 279 271 276 275 270 268 265 272 280 285 290 299 305 308 307 307 303 301 300 287 229 202 254 254 269 282 284 279 245 229 242 228 199 196 194 172 143 173 196 181 173 188 233 214 212 186 197 192 202 197 205 199 195 192
349 339 339 341 351 358 353 341 337 336 337 340 340 336 331 328 323 321 322 317 312 313 313 312 314 313 307 311 312 318 319 320 315 296 270 258 260 265 265 264 277 286 289 289 290 298 301 301 297 294 295 292 268 254 252 236 264 276 271 269 239 214 235 227 215 206 191 185 168 120 92 182 217 223 160 245 179 202 212 204 204 200 194 197 200
346 330 327 335 354 349 339 337 337 334 333 332 329 325 323 322 322 334 337 329 325 322 324 325 326 325 321 315 314 309 303 305 301 290 280 265 251 243 254 265 261 270 275 278 282 285 282 284 289 292 289 287 282 271 266 261 237 246 261 258 253 249 225 225 215 228 211 205 201 191 181 189 188 178 148 223 163 212 202 211 211 204 200 199 205
350 350 349 348 344 338 336 333 330 334 336 334 331 325 321 318 332 343 335 327 324 329 334 338 337 331 311 310 313 310 305 296 289 285 280 276 265 263 253 256 260 258 265 270 275 271 263 264 271 276 281 286 286 282 279 270 260 243 246 264 256 251 237 231 216 210 224 228 222 224 218 82 157 139 198 97 164 243 219 207 215 209 203 203 204
360 355 346 340 334 331 329 333 338 336 332 330 326 324 316 324 344 336 331 327 322 324 326 328 327 306 304 318 319 312 303 298 304 303 298 294 293 285 275 258 261 251 249 257 258 258 257 252 253 259 265 270 272 271 267 267 269 261 239 229 243 247 240 229 223 215 207 216 219 226 226 167 162 184 168 179 171 180 210 229 229 210 208 214 209
354 346 341 337 334 331 327 331 325 320 320 319 316 314 318 340 331 333 328 322 313 314 316 319 311 303 315 317 313 306 303 297 296 296 297 298 297 294 288 280 266 264 250 244 242 241 243 248 246 246 251 257 259 265 267 268 261 264 264 246 232 233 224 228 226 223 216 216 210 223 225 222 178 206 193 182 164 175 217 194 202 193 213 223 215
348 338 330 329 328 326 326 328 324 313 305 305 305 310 334 325 328 327 318 313 305 301 298 290 285 308 316 316 310 307 304 298 295 296 295 294 292 294 295 292 284 270 262 240 238 240 249 249 246 241 240 241 245 246 261 270 270 263 257 253 244 234 216 216 226 228 227 227 220 211 216 219 219 207 207 207 229 210 195 192 195 179 202 221 201
342 337 333 329 328 331 335 335 329 321 313 308 312 320 310 320 319 314 310 307 303 301 300 306 325 327 326 323 317 309 303 297 297 293 294 293 292 293 293 290 286 280 270 261 243 240 242 242 238 230 231 239 236 237 239 243 251 256 262 252 242 235 232 217 226 236 235 228 230 220 215 210 214 215 212 199 189 191 168 200 187 194 206 203 201
330 328 327 329 338 344 341 335 330 327 321 316 320 316 320 314 306 303 303 305 307 308 323 328 327 331 330 329 325 319 307 298 291 290 292 289 287 288 290 290 286 278 268 268 268 254 237 236 240 247 248 242 237 231 238 240 243 246 252 252 246 238 236 227 222 230 232 234 230 227 226 219 220 223 226 192 198 210 190 180 180 179 229 231 176
329 336 343 346 343 339 333 326 326 326 318 316 318 315 309 303 295 294 296 307 313 311 318 324 328 331 335 333 329 325 322 313 303 301 299 292 287 284 287 290 293 294 291 286 280 266 253 250 243 242 247 243 239 233 232 233 234 233 232 241 244 242 233 228 227 223 219 221 230 232 231 229 226 224 226 196 197 176 180 175 199 176 189 195 189
346 340 337 339 337 332 327 321 320 319 313 307 309 308 302 294 290 283 288 306 305 299 305 311 316 328 333 329 325 327 324 318 315 311 306 303 309 305 299 290 281 277 281 277 272 266 256 247 242 238 237 240 239 238 233 226 224 231 232 232 237 243 240 234 232 231 222 217 213 223 230 231 234 229 227 201 176 160 188 194 160 182 219 191 128
336 341 339 333 331 327 321 318 317 319 312 309 310 309 305 297 288 278 297 304 294 277 286 292 310 314 317 318 326 334 328 321 316 315 318 319 311 306 303 299 295 291 284 278 276 268 255 245 236 234 238 238 236 238 239 232 224 223 229 238 239 233 238 235 233 229 225 214 208 209 219 223 226 233 181 206 199 195 179 169 156 160 153 151 198
340 338 333 329 326 323 319 319 318 319 315 308 309 310 307 296 280 283 292 293 275 270 268 275 287 293 304 317 329 336 329 320 312 309 309 312 312 308 303 296 289 284 279 275 270 265 256 246 243 241 238 234 229 228 231 231 228 222 226 228 241 233 234 234 237 232 230 224 215 206 201 218 217 213 212 211 199 189 166 152 175 178 171 193 183
338 333 331 327 322 320 321 317 316 319 318 314 312 314 309 299 297 301 298 289 266 262 252 260 267 289 298 317 334 334 326 316 310 306 310 317 317 314 307 298 288 280 279 276 275 261 257 252 250 241 236 229 227 225 226 229 229 223 224 225 234 237 230 238 234 233 232 226 220 206 204 208 204 194 206 214 212 205 202 167 187 192 191 190 178
331 328 327 325 324 324 322 318 317 320 320 317 318 317 309 302 305 308 307 298 279 264 255 258 277 292 308 322 326 322 313 307 303 303 308 309 306 304 303 299 289 284 280 279 274 269 268 259 250 237 238 233 228 222 217 219 220 222 224 224 226 228 230 238 235 227 234 226 221 214 205 206 193 191 199 205 206 203 202 201 201 201 201 208 190
331 331 330 328 327 325 323 324 329 332 329 325 323 320 314 314 322 324 319 306 288 272 257 264 282 304 311 317 319 313 309 305 301 301 303 302 301 298 297 291 287 282 280 278 274 270 265 261 256 237 231 230 227 224 221 221 214 219 220 222 223 218 226 236 232 229 229 216 219 220 212 215 191 193 195 194 199 199 200 198 210 205 207 219 206
332 332 328 328 329 331 337 339 336 334 332 331 329 326 327 333 330 324 315 305 293 279 287 299 300 309 313 310 308 309 305 303 304 306 305 299 298 295 291 287 279 279 275 275 274 272 265 259 247 238 231 226 222 225 221 217 213 218 217 214 217 207 221 236 240 217 230 222 215 217 217 217 201 192 195 194 196 200 197 200 204 207 211 214 217
332 327 327 333 340 344 342 338 334 332 330 329 328 329 330 327 322 319 317 315 308 300 300 294 310 313 311 311 310 310 310 310 309 304 296 293 290 287 285 279 275 272 270 268 268 267 266 261 249 237 234 237 235 231 219 213 210 214 214 212 208 202 210 221 229 240 225 224 228 229 225 219 200 194 201 198 201 195 191 199 204 209 214 210 209
326 323 331 343 341 339 333 330 330 327 326 326 327 325 324 322 320 320 322 320 317 313 313 317 321 315 314 312 310 315 320 318 309 298 292 289 281 279 284 285 281 279 270 264 263 262 257 249 251 243 230 228 224 232 238 231 220 213 215 209 206 200 204 210 207 220 233 227 230 233 233 231 214 206 203 203 200 202 198 194 199 206 214 214 206
321 323 339 338 334 329 327 328 328 328 324 323 324 326 327 324 323 327 328 327 328 325 320 316 313 314 312 313 321 322 317 309 301 295 290 283 280 282 287 289 289 286 275 263 260 257 253 251 245 248 238 235 233 232 229 217 226 225 214 208 205 201 203 203 204 208 208 208 222 238 243 236 221 214 216 211 201 201 201 205 206 204 213 216 209
319 337 335 329 326 324 326 327 328 330 330 327 327 327 322 320 326 326 326 324 319 316 312 309 309 306 313 321 318 313 309 302 295 292 284 282 278 279 280 280 286 299 301 289 267 258 254 252 255 251 241 234 234 233 233 225 221 222 223 215 205 203 205 206 204 205 201 199 209 225 234 232 226 224 221 212 205 201 200 205 213 213 214 216 211
331 334 329 324 323 327 328 327 328 328 329 330 325 320 317 316 317 318 317 317 313 311 307 303 305 314 317 312 310 310 301 294 291 287 288 287 286 286 282 282 292 298 301 303 306 303 287 267 254 249 245 235 231 234 235 234 228 219 219 219 213 205 205 207 206 205 200 199 204 211 224 221 215 225 227 218 206 202 202 204 210 211 216 220 215
331 327 325 326 325 323 323 328 332 331 330 329 326 321 321 318 319 322 320 317 314 306 304 319 327 320 312 311 315 311 300 296 291 290 291 291 290 290 295 299 298 297 295 296 294 293 294 295 288 277 264 257 251 242 239 238 235 226 220 220 217 212 208 204 205 205 204 201 204 207 209 210 217 221 227 221 211 205 201 203 207 211 212 216 215
325 323 321 319 324 324 328 331 332 334 333 326 323 324 323 323 320 320 319 312 312 326 333 327 319 309 309 321 317 307 300 294 299 311 319 318 314 310 304 298 298 297 295 294 293 293 292 290 289 285 279 273 268 262 254 245 236 230 226 223 222 221 218 211 209 207 203 205 206 207 204 205 218 224 226 222 217 210 203 205 206 207 207 209 212
323 323 325 326 324 327 333 333 331 331 333 331 326 321 319 321 322 322 319 323 335 330 323 312 302 313 325 322 323 314 306 318 322 316 310 306 305 306 304 302 301 296 300 307 314 315 310 300 289 285 281 276 267 261 252 244 235 228 225 222 221 222 219 216 216 214 211 209 208 206 206 207 212 219 224 225 219 218 207 210 209 203 204 206 210
323 324 327 328 327 329 335 334 331 331 331 331 325 323 323 324 326 318 328 334 326 318 308 313 332 331 327 322 316 311 311 314 313 310 305 299 301 306 307 298 291 306 316 314 309 305 304 300 293 284 282 279 273 263 255 244 237 232 223 222 221 221 221 223 221 218 215 213 212 209 208 210 211 214 215 220 224 222 212 214 211 198 204 206 210
324 326 328 328 327 329 335 332 332 334 335 333 329 327 327 328 325 323 324 323 322 314 326 334 329 324 319 315 312 307 306 304 302 300 298 311 322 320 316 319 322 318 312 309 306 298 289 286 283 281 277 274 267 256 244 248 248 240 231 231 224 219 219 220 219 217 217 216 215 213 212 212 217 219 220 222 226 228 225 220 211 194 201 204 208
324 326 327 327 325 329 332 333 333 332 333 335 328 323 327 327 325 324 325 326 329 334 331 326 323 319 314 310 307 303 300 297 294 303 322 324 323 318 314 311 311 310 303 300 298 294 286 283 278 277 276 272 266 264 266 259 257 257 249 231 224 218 214 214 215 214 217 218 219 218 219 217 216 219 221 225 227 229 231 227 221 211 207 204 202
324 326 328 327 330 331 334 334 334 334 334 333 332 330 328 327 323 323 324 325 327 325 323 321 317 313 311 309 309 310 311 315 319 319 320 321 315 311 309 306 302 298 294 291 286 283 279 273 270 266 264 263 266 267 269 268 262 258 254 241 226 225 213 210 212 215 220 221 222 221 220 216 216 215 217 221 226 230 233 234 232 226 220 215 213
323 326 327 328 328 328 333 335 335 336 335 333 329 326 325 323 324 326 326 324 325 327 323 316 314 313 313 317 319 320 318 315 313 315 316 316 312 306 304 302 298 297 292 282 272 270 269 269 264 261 257 255 255 256 259 259 257 253 250 248 223 212 218 213 213 216 217 220 218 217 217 216 215 214 216 218 221 227 233 235 237 237 230 215 212
322 325 326 326 327 330 334 334 333 335 337 332 329 326 324 326 325 326 325 324 324 321 316 314 315 317 319 319 320 317 314 310 312 316 317 314 310 305 304 301 297 294 290 286 283 280 277 271 262 257 257 256 256 253 253 255 252 249 249 247 238 208 217 220 219 218 219 218 214 212 215 216 212 212 216 218 218 219 221 226 230 231 229 227 216
323 325 328 329 331 333 334 334 335 335 334 335 330 326 329 327 327 325 325 325 323 318 317 317 319 320 319 320 319 316 313 313 316 317 315 311 308 305 302 299 296 293 290 286 286 285 281 278 270 258 254 255 254 253 250 247 247 248 250 251 247 208 219 223 226 223 220 219 215 215 215 217 212 210 213 217 216 213 213 217 222 227 227 223 219
326 326 330 332 335 338 336 333 332 331 334 335 331 330 326 327 327 324 322 322 321 319 319 320 322 321 320 320 317 316 314 315 315 314 311 308 305 303 302 300 295 289 284 278 276 272 270 269 266 259 257 254 247 245 246 244 246 248 251 249 235 234 231 222 220 222 221 219 217 213 214 217 218 216 217 216 217 210 209 214 218 221 224 222 220
327 329 329 332 337 338 335 332 333 332 335 340 332 328 327 327 323 324 323 321 322 322 323 325 324 322 320 318 316 313 313 314 313 310 308 307 307 305 301 297 292 289 286 282 277 275 274 278 281 277 264 260 259 255 256 254 251 254 252 259 225 215 223 227 226 223 218 214 211 212 207 211 214 217 219 218 220 213 209 215 216 215 215 215 218
326 329 329 334 337 336 335 333 322 331 337 334 331 329 326 321 322 324 322 325 325 326 327 326 322 320 318 317 315 316 314 312 310 308 307 306 303 299 297 296 291 291 288 283 280 279 279 281 281 273 263 258 263 259 258 257 262 263 259 247 230 227 226 226 228 223 220 216 212 207 206 206 208 213 216 218 220 216 212 213 213 213 212 211 214
330 331 333 339 339 339 335 332 330 338 344 333 328 327 322 322 322 320 323 323 327 330 328 322 322 319 317 317 315 313 311 308 308 307 305 302 301 299 295 294 290 287 282 282 281 279 281 279 270 264 264 263 251 256 259 266 264 263 265 256 249 236 240 233 226 225 217 216 212 210 208 207 208 213 213 214 216 214 215 213 208 206 209 209 210
334 335 338 337 339 339 336 332 327 331 336 338 336 326 325 324 320 321 320 325 332 329 324 322 319 318 318 316 315 309 305 307 306 306 304 299 296 297 297 295 290 283 277 273 274 274 279 283 282 278 272 263 264 273 287 297 314 313 301 288 268 251 239 234 226 223 217 214 213 211 217 215 215 215 212 213 218 217 215 209 200 203 204 212 195
336 339 343 340 342 340 334 320 333 338 339 339 332 329 325 325 326 325 328 331 327 323 324 322 321 319 318 316 310 307 309 307 304 302 299 295 293 292 292 292 292 292 293 293 278 271 272 277 278 279 283 291 290 278 280 295 302 303 298 292 264 257 255 253 245 226 214 210 205 206 197 218 223 227 220 215 223 225 219 202 196 198 204 196 163
341 340 341 343 341 338 335 329 343 345 342 338 337 331 329 328 328 330 332 326 324 324 323 324 322 319 316 313 312 311 310 308 306 304 295 291 293 293 294 295 294 304 310 308 309 303 302 316 324 332 330 309 275 265 272 282 296 299 298 289 279 266 254 228 240 230 221 208 200 199 190 217 226 228 233 233 231 227 222 204 192 194 190 184 168
341 338 352 347 339 339 331 328 346 346 342 339 335 333 330 327 329 332 327 324 326 327 327 323 320 318 317 317 316 315 314 312 306 299 296 299 306 308 306 309 308 313 313 312 310 310 325 325 326 316 307 298 293 288 281 280 281 288 292 287 280 277 272 256 220 214 208 204 192 193 203 213 215 226 231 229 230 231 231 193 189 195 190 180 155
336 349 348 344 340 337 330 339 345 347 348 339 338 333 329 330 331 328 325 328 329 328 324 321 320 318 318 319 318 316 315 313 312 311 313 313 315 316 314 311 317 318 316 314 315 316 315 321 317 309 291 278 283 284 275 274 275 284 292 288 280 273 265 254 220 207 192 190 182 192 201 208 217 224 228 225 225 226 216 178 186 187 177 167 148
352 348 345 343 340 335 333 351 349 345 341 340 338 334 332 331 331 331 331 330 329 327 324 321 320 321 321 319 317 316 315 314 316 319 320 321 317 319 316 321 320 318 312 310 314 315 313 315 315 312 310 309 303 291 279 273 276 290 297 293 286 275 264 252 235 191 180 195 197 195 196 207 215 221 227 221 221 226 214 171 181 175 168 142 145
348 344 345 337 339 331 350 351 347 344 341 339 338 339 333 332 333 331 329 329 327 324 323 322 322 322 321 318 317 316 313 313 316 316 316 315 315 318 317 316 316 309 302 308 311 311 311 309 314 329 328 314 307 299 293 286 283 295 295 290 285 279 265 263 232 189 195 182 186 186 187 198 211 220 216 183 151 185 180 171 175 165 123 130 133
347 342 336 338 342 346 353 349 342 342 342 339 339 338 334 334 332 330 330 328 325 324 323 324 323 323 321 321 322 322 324 325 323 322 321 320 317 317 313 306 305 310 307 306 306 306 307 307 320 318 308 310 305 301 304 304 297 299 297 288 274 263 256 149 114 114 135 138 161 156 169 186 186 206 171 135 147 163 168 164 125 107 125 131 138
342 335 336 346 351 348 346 342 341 339 338 339 338 337 337 333 329 331 329 328 327 328 327 324 324 324 323 324 323 325 327 326 328 330 329 326 322 316 310 307 310 311 308 302 299 303 307 311 310 303 300 302 301 306 308 307 309 308 304 328 62 72 76 88 99 94 84 106 98 128 135 70 73 70 72 57 55 60 80 94 109 109 106 119 127
336 339 357 356 347 344 342 340 338 337 338 338 337 335 334 334 334 332 332 330 330 329 326 324 324 325 324 324 323 324 326 325 322 322 318 315 312 310 309 302 294 282 276 282 294 301 299 303 296 292 293 285 294 304 297 310 311 309 303 138 100 97 100 93 117 112 89 73 82 89 95 98 93 93 81 91 97 96 84 97 107 110 108 106 109
340 359 357 347 341 339 340 339 338 339 340 338 336 334 334 336 334 334 334 332 332 329 328 328 327 325 323 323 324 323 323 320 321 321 321 318 313 318 313 308 306 309 312 311 311 310 326 321 317 301 276 275 269 286 322 332 328 329 115 121 110 108 111 114 121 107 98 89 85 87 90 99 102 99 102 103 108 104 102 95 90 108 106 101 95
358 356 347 342 339 340 340 339 340 340 338 336 334 334 335 336 337 335 334 333 332 330 327 326 327 327 323 323 322 321 321 320 321 323 320 317 317 316 320 320 315 314 315 319 324 338 344 345 346 330 334 347 345 346 340 341 338 111 118 114 114 120 121 120 110 95 76 87 96 92 88 91 95 100 101 103 104 105 105 99 88 83 87 103 103